| time (UTC) | temp C | wind direction | speed KPH | gust KPH | rain 1hr cm | rain 24hr cm | rain mn cm | humidity % | barometer mb |
| 20260507201517 | 11 | 0.0 | 0.0 | 0.00 | 0.05 | 0.05 | 81 | 1012.8 | |
| 20260507200517 | 11 | 0.0 | 1.6 | 0.03 | 0.05 | 0.05 | 78 | 1012.6 | |
| 20260507195516 | 11 | 0.0 | 0.0 | 0.03 | 0.05 | 0.05 | 81 | 1012.7 | |
| 20260507194517 | 11 | 0.0 | 0.0 | 0.03 | 0.05 | 0.05 | 78 | 1013.0 | |
| 20260507193536 | 11 | 0.0 | 1.6 | 0.03 | 0.05 | 0.05 | 82 | 1012.9 | |
| 20260507192537 | 10 | 0.0 | 3.2 | 0.03 | 0.05 | 0.05 | 81 | 1013.0 | |
| 20260507191517 | 11 | 0.0 | 1.6 | 0.03 | 0.05 | 0.05 | 85 | 1012.6 | |
| 20260507190516 | 10 | 0.0 | 0.0 | 0.00 | 0.03 | 0.03 | 81 | 1013.3 | |
| 20260507185536 | 11 | 0.0 | 1.6 | 0.00 | 0.03 | 0.03 | 75 | 1013.2 | |
| 20260507184537 | 11 | 0.0 | 0.0 | 0.00 | 0.03 | 0.03 | 81 | 1013.6 | |
| 20260507183537 | 11 | 0.0 | 0.0 | 0.00 | 0.03 | 0.03 | 76 | 1013.2 | |
| 20260507182517 | 11 | 338 | 1.6 | 1.6 | 0.00 | 0.03 | 0.03 | 75 | 1013.2 |
| 20260507181516 | 11 | 0.0 | 0.0 | 0.00 | 0.03 | 0.03 | 74 | 1013.5 | |
| 20260507180516 | 11 | 0.0 | 0.0 | 0.00 | 0.03 | 0.03 | 77 | 1013.8 | |
| 20260507175517 | 11 | 0.0 | 0.0 | 0.00 | 0.03 | 0.03 | 80 | 1013.6 | |
| 20260507174516 | 11 | 0.0 | 0.0 | 0.00 | 0.03 | 0.03 | 82 | 1013.7 | |
| 20260507173516 | 11 | 0.0 | 0.0 | 0.00 | 0.03 | 0.03 | 76 | 1014.0 | |
| 20260507172516 | 11 | 0.0 | 0.0 | 0.00 | 0.03 | 0.03 | 73 | 1013.9 | |
| 20260507171516 | 12 | 68 | 1.6 | 3.2 | 0.00 | 0.03 | 0.03 | 69 | 1013.9 |
| 20260507170516 | 12 | 45 | 1.6 | 3.2 | 0.00 | 0.03 | 0.03 | 70 | 1014.0 |
| 20260507165536 | 12 | 0.0 | 1.6 | 0.00 | 0.03 | 0.03 | 71 | 1014.0 | |
| 20260507164516 | 12 | 0.0 | 1.6 | 0.00 | 0.03 | 0.03 | 76 | 1014.1 | |
| 20260507163516 | 12 | 0.0 | 1.6 | 0.00 | 0.03 | 0.03 | 72 | 1014.1 | |
| 20260507162536 | 12 | 0.0 | 3.2 | 0.00 | 0.03 | 0.03 | 71 | 1014.4 | |
| 20260507161516 | 12 | 0.0 | 0.0 | 0.00 | 0.03 | 0.03 | 69 | 1014.5 | |
| 20260507160517 | 12 | 0.0 | 0.0 | 0.00 | 0.03 | 0.03 | 68 | 1014.5 | |
| 20260507155536 | 12 | 270 | 1.6 | 3.2 | 0.00 | 0.03 | 0.03 | 69 | 1014.7 |
| 20260507154516 | 12 | 90 | 1.6 | 3.2 | 0.00 | 0.03 | 0.03 | 70 | 1014.9 |
| 20260507153516 | 12 | 248 | 1.6 | 3.2 | 0.00 | 0.03 | 0.03 | 71 | 1014.9 |
| 20260507152521 | 12 | 23 | 1.6 | 4.8 | 0.00 | 0.03 | 0.03 | 71 | 1014.7 |
| 20260507151516 | 13 | 23 | 1.6 | 4.8 | 0.00 | 0.03 | 0.03 | 71 | 1014.5 |
| 20260507150516 | 13 | 0.0 | 1.6 | 0.00 | 0.03 | 0.03 | 73 | 1014.5 | |
| 20260507145516 | 12 | 0.0 | 0.0 | 0.00 | 0.05 | 0.03 | 72 | 1014.8 | |
| 20260507144516 | 12 | 23 | 1.6 | 3.2 | 0.00 | 0.05 | 0.03 | 71 | 1014.8 |
| 20260507143516 | 12 | 45 | 4.8 | 14.5 | 0.00 | 0.05 | 0.03 | 73 | 1014.6 |
| 20260507142516 | 12 | 23 | 1.6 | 3.2 | 0.00 | 0.05 | 0.03 | 73 | 1014.9 |
| 20260507141516 | 12 | 0.0 | 1.6 | 0.00 | 0.08 | 0.03 | 76 | 1014.9 | |
| 20260507140537 | 12 | 0 | 1.6 | 3.2 | 0.00 | 0.10 | 0.03 | 75 | 1014.9 |
| 20260507135516 | 12 | 158 | 1.6 | 4.8 | 0.00 | 0.13 | 0.03 | 75 | 1015.0 |
| 20260507134516 | 12 | 0.0 | 0.0 | 0.00 | 0.13 | 0.03 | 78 | 1015.1 | |
| 20260507133516 | 12 | 23 | 3.2 | 6.4 | 0.00 | 0.18 | 0.03 | 78 | 1015.3 |
| 20260507132516 | 12 | 0.0 | 0.0 | 0.00 | 0.18 | 0.03 | 81 | 1015.0 | |
| 20260507131516 | 12 | 0.0 | 0.0 | 0.00 | 0.20 | 0.03 | 80 | 1014.8 | |
| 20260507130516 | 12 | 45 | 1.6 | 4.8 | 0.00 | 0.23 | 0.03 | 81 | 1015.0 |
| 20260507125516 | 12 | 68 | 1.6 | 3.2 | 0.00 | 0.23 | 0.03 | 83 | 1014.9 |
| 20260507124516 | 12 | 0.0 | 0.0 | 0.00 | 0.23 | 0.03 | 83 | 1014.6 | |
| 20260507123516 | 12 | 23 | 1.6 | 4.8 | 0.00 | 0.23 | 0.03 | 83 | 1014.7 |
| 20260507122516 | 12 | 0.0 | 1.6 | 0.00 | 0.23 | 0.03 | 82 | 1015.0 | |
| 20260507121516 | 12 | 0.0 | 0.0 | 0.00 | 0.23 | 0.03 | 84 | 1014.7 | |
| 20260507120516 | 12 | 0.0 | 1.6 | 0.00 | 0.23 | 0.03 | 84 | 1014.3 | |
| 20260507115536 | 12 | 0.0 | 0.0 | 0.00 | 0.23 | 0.03 | 84 | 1014.5 | |
| 20260507114516 | 12 | 0.0 | 0.0 | 0.00 | 0.23 | 0.03 | 85 | 1014.3 | |
| 20260507113516 | 12 | 0.0 | 1.6 | 0.00 | 0.23 | 0.03 | 85 | 1014.3 | |
| 20260507112516 | 12 | 0.0 | 0.0 | 0.00 | 0.23 | 0.03 | 85 | 1014.2 | |
| 20260507111516 | 12 | 0.0 | 1.6 | 0.00 | 0.23 | 0.03 | 86 | 1013.9 | |
| 20260507110516 | 12 | 0.0 | 0.0 | 0.00 | 0.23 | 0.03 | 86 | 1013.8 | |
| 20260507105516 | 12 | 0.0 | 1.6 | 0.00 | 0.23 | 0.03 | 87 | 1013.7 | |
| 20260507104515 | 12 | 0.0 | 1.6 | 0.00 | 0.23 | 0.03 | 87 | 1013.8 | |
| 20260507103516 | 12 | 0.0 | 3.2 | 0.00 | 0.23 | 0.03 | 87 | 1014.1 | |
| 20260507102516 | 12 | 0.0 | 1.6 | 0.00 | 0.23 | 0.03 | 88 | 1013.7 | |
| 20260507101516 | 12 | 0.0 | 0.0 | 0.00 | 0.23 | 0.03 | 87 | 1013.6 | |
| 20260507100556 | 12 | 0.0 | 1.6 | 0.00 | 0.23 | 0.03 | 88 | 1013.8 | |
| 20260507095515 | 12 | 0.0 | 1.6 | 0.00 | 0.23 | 0.03 | 88 | 1013.3 | |
| 20260507094556 | 12 | 0.0 | 1.6 | 0.00 | 0.23 | 0.03 | 87 | 1013.0 | |
| 20260507093515 | 12 | 23 | 1.6 | 3.2 | 0.00 | 0.23 | 0.03 | 88 | 1013.5 |
| 20260507092515 | 12 | 45 | 1.6 | 4.8 | 0.00 | 0.23 | 0.03 | 88 | 1013.6 |
| 20260507091538 | 12 | 0.0 | 0.0 | 0.00 | 0.23 | 0.03 | 89 | 1013.5 | |
| 20260507090518 | 12 | 0.0 | 0.0 | 0.00 | 0.23 | 0.03 | 89 | 1013.5 | |
| 20260507085517 | 12 | 0.0 | 1.6 | 0.00 | 0.23 | 0.03 | 89 | 1013.5 | |
| 20260507084517 | 12 | 0.0 | 0.0 | 0.03 | 0.23 | 0.03 | 90 | 1013.3 | |
| 20260507083517 | 13 | 90 | 1.6 | 3.2 | 0.03 | 0.23 | 0.03 | 91 | 1013.4 |
| 20260507082518 | 13 | 45 | 3.2 | 4.8 | 0.03 | 0.23 | 0.03 | 91 | 1013.1 |
| 20260507081518 | 13 | 203 | 3.2 | 4.8 | 0.03 | 0.23 | 0.03 | 91 | 1012.9 |
| 20260507080517 | 13 | 0.0 | 3.2 | 0.03 | 0.23 | 0.03 | 90 | 1013.2 | |
| 20260507075538 | 13 | 225 | 1.6 | 3.2 | 0.03 | 0.23 | 0.03 | 90 | 1013.3 |
| 20260507074518 | 13 | 0.0 | 0.0 | 0.00 | 0.20 | 0.00 | 90 | 1013.5 | |
| 20260507073518 | 13 | 0.0 | 3.2 | 0.00 | 0.20 | 0.00 | 91 | 1012.7 | |
| 20260507072538 | 13 | 0.0 | 0.0 | 0.00 | 0.20 | 0.00 | 91 | 1012.7 | |
| 20260507071517 | 13 | 23 | 1.6 | 3.2 | 0.00 | 0.20 | 0.00 | 91 | 1012.3 |
| 20260507070518 | 13 | 0.0 | 1.6 | 0.00 | 0.20 | 0.00 | 91 | 1012.1 | |
| 20260507065517 | 14 | 270 | 1.6 | 1.6 | 0.00 | 0.20 | 0.00 | 92 | 1012.1 |
| 20260507064517 | 15 | 315 | 1.6 | 3.2 | 0.00 | 0.20 | 0.00 | 93 | 1012.9 |
| 20260507063518 | 15 | 293 | 1.6 | 4.8 | 0.00 | 0.20 | 0.00 | 93 | 1012.9 |
| 20260507062517 | 16 | 68 | 1.6 | 1.6 | 0.00 | 0.20 | 0.00 | 93 | 1012.5 |
| 20260507061517 | 17 | 0.0 | 0.0 | 0.00 | 0.20 | 0.00 | 94 | 1012.7 | |
| 20260507060517 | 17 | 0.0 | 0.0 | 0.00 | 0.20 | 0.00 | 94 | 1012.4 | |
| 20260507055517 | 17 | 0.0 | 0.0 | 0.00 | 0.20 | 0.00 | 94 | 1012.5 | |
| 20260507054517 | 17 | 0.0 | 0.0 | 0.00 | 0.20 | 0.00 | 94 | 1012.1 | |
| 20260507053517 | 17 | 0.0 | 0.0 | 0.00 | 0.20 | 0.00 | 93 | 1011.4 | |
| 20260507052517 | 17 | 0.0 | 0.0 | 0.00 | 0.20 | 0.00 | 93 | 1011.4 | |
| 20260507051517 | 17 | 0.0 | 0.0 | 0.00 | 0.20 | 0.00 | 93 | 1011.3 | |
| 20260507050517 | 17 | 0.0 | 0.0 | 0.00 | 0.20 | 0.00 | 92 | 1011.3 | |
| 20260507045517 | 17 | 0.0 | 0.0 | 0.00 | 0.20 | 0.00 | 92 | 1011.9 | |
| 20260507044517 | 18 | 0.0 | 0.0 | 0.00 | 0.20 | 0.00 | 92 | 1012.2 | |
| 20260507043517 | 18 | 0.0 | 0.0 | 0.00 | 0.20 | 0.00 | 91 | 1012.4 | |
| 20260507042537 | 18 | 0.0 | 0.0 | 0.00 | 0.20 | 0.00 | 91 | 1012.2 | |
| 20260507041517 | 18 | 0.0 | 0.0 | 0.00 | 0.20 | 0.00 | 90 | 1011.9 | |
| 20260507040538 | 18 | 0.0 | 0.0 | 0.00 | 0.20 | 0.00 | 89 | 1011.9 | |
| 20260507035517 | 18 | 0.0 | 0.0 | 0.00 | 0.20 | 0.20 | 88 | 1012.0 | |
| 20260507034517 | 18 | 0.0 | 0.0 | 0.00 | 0.20 | 0.20 | 87 | 1012.3 | |
| 20260507033517 | 18 | 0.0 | 0.0 | 0.00 | 0.20 | 0.20 | 89 | 1012.4 | |
| 20260507032518 | 18 | 0.0 | 0.0 | 0.00 | 0.20 | 0.20 | 89 | 1012.1 | |
| 20260507031518 | 18 | 0.0 | 0.0 | 0.00 | 0.20 | 0.20 | 88 | 1012.1 | |
| 20260507030517 | 18 | 0.0 | 0.0 | 0.00 | 0.20 | 0.20 | 88 | 1011.8 | |
| 20260507025517 | 18 | 0.0 | 0.0 | 0.00 | 0.20 | 0.20 | 86 | 1012.2 | |
| 20260507024518 | 18 | 0.0 | 0.0 | 0.00 | 0.20 | 0.20 | 86 | 1012.3 | |
| 20260507023538 | 18 | 0.0 | 0.0 | 0.00 | 0.20 | 0.20 | 86 | 1012.1 | |
| 20260507022517 | 18 | 0.0 | 1.6 | 0.00 | 0.20 | 0.20 | 86 | 1011.7 | |
| 20260507021517 | 18 | 0.0 | 0.0 | 0.00 | 0.20 | 0.20 | 86 | 1011.5 | |
| 20260507020517 | 18 | 0.0 | 0.0 | 0.00 | 0.20 | 0.20 | 87 | 1011.3 | |
| 20260507015517 | 18 | 0.0 | 0.0 | 0.00 | 0.20 | 0.20 | 87 | 1011.5 | |
| 20260507014517 | 18 | 0.0 | 0.0 | 0.00 | 0.20 | 0.20 | 87 | 1011.7 | |
| 20260507013517 | 18 | 0.0 | 0.0 | 0.00 | 0.20 | 0.20 | 86 | 1011.6 | |
| 20260507012517 | 18 | 0.0 | 0.0 | 0.00 | 0.20 | 0.20 | 86 | 1011.8 | |
| 20260507011537 | 18 | 0.0 | 1.6 | 0.00 | 0.20 | 0.20 | 86 | 1012.0 | |
| 20260507010517 | 18 | 0.0 | 0.0 | 0.00 | 0.20 | 0.20 | 87 | 1012.0 | |
| 20260507005517 | 18 | 0.0 | 0.0 | 0.00 | 0.20 | 0.20 | 86 | 1011.9 | |
| 20260507004517 | 19 | 0.0 | 0.0 | 0.00 | 0.20 | 0.20 | 84 | 1011.8 | |
| 20260507003517 | 19 | 0.0 | 1.6 | 0.00 | 0.20 | 0.20 | 84 | 1011.8 | |
| 20260507002807 | 19 | 0.0 | 0.0 | 0.00 | 0.20 | 0.20 | 84 | 1011.7 | |
| 20260507002418 | 19 | 0.0 | 0.0 | 0.00 | 0.20 | 0.20 | 84 | 1011.7 | |
| 20260507002350 | 19 | 0.0 | 0.0 | 0.00 | 0.20 | 0.20 | 84 | 1011.9 | |
| 20260507001318 | 19 | 0.0 | 0.0 | 0.00 | 0.20 | 0.20 | 84 | 1011.9 | |
| 20260507000317 | 19 | 0.0 | 1.6 | 0.00 | 0.20 | 0.20 | 83 | 1011.6 | |
| 20260506235317 | 20 | 0.0 | 0.0 | 0.00 | 0.20 | 0.20 | 82 | 1011.5 | |
| 20260506234317 | 20 | 0.0 | 0.0 | 0.00 | 0.20 | 0.20 | 81 | 1011.8 | |
| 20260506233337 | 20 | 0.0 | 0.0 | 0.00 | 0.20 | 0.20 | 81 | 1011.9 | |
| 20260506232317 | 20 | 0.0 | 0.0 | 0.00 | 0.20 | 0.20 | 81 | 1011.8 | |
| 20260506231317 | 20 | 0.0 | 3.2 | 0.00 | 0.20 | 0.20 | 83 | 1011.5 | |
| 20260506230317 | 20 | 0.0 | 1.6 | 0.00 | 0.20 | 0.20 | 81 | 1011.4 | |
| 20260506225317 | 20 | 338 | 1.6 | 3.2 | 0.00 | 0.20 | 0.20 | 80 | 1011.3 |
| 20260506224317 | 21 | 0.0 | 1.6 | 0.00 | 0.20 | 0.20 | 81 | 1011.3 | |
| 20260506223337 | 21 | 113 | 1.6 | 1.6 | 0.00 | 0.20 | 0.20 | 80 | 1011.5 |
| 20260506222317 | 21 | 0.0 | 1.6 | 0.00 | 0.20 | 0.20 | 79 | 1011.3 | |
| 20260506221317 | 21 | 0.0 | 0.0 | 0.00 | 0.20 | 0.20 | 81 | 1011.2 | |
| 20260506220317 | 21 | 0.0 | 1.6 | 0.00 | 0.20 | 0.20 | 81 | 1011.4 | |
| 20260506215317 | 21 | 0.0 | 1.6 | 0.00 | 0.20 | 0.20 | 80 | 1011.6 | |
| 20260506214317 | 21 | 0.0 | 1.6 | 0.00 | 0.20 | 0.20 | 79 | 1011.4 | |
| 20260506213316 | 20 | 0.0 | 1.6 | 0.00 | 0.20 | 0.20 | 79 | 1011.1 | |
| 20260506212317 | 20 | 113 | 1.6 | 3.2 | 0.00 | 0.20 | 0.20 | 79 | 1011.0 |
| 20260506211316 | 20 | 0.0 | 1.6 | 0.00 | 0.20 | 0.20 | 79 | 1011.1 | |
| 20260506210316 | 21 | 23 | 1.6 | 3.2 | 0.00 | 0.20 | 0.20 | 79 | 1011.3 |
| 20260506205316 | 21 | 225 | 1.6 | 3.2 | 0.00 | 0.20 | 0.20 | 79 | 1011.2 |
| 20260506204337 | 21 | 180 | 1.6 | 6.4 | 0.00 | 0.20 | 0.20 | 78 | 1011.3 |
| 20260506203317 | 21 | 248 | 1.6 | 3.2 | 0.00 | 0.20 | 0.20 | 76 | 1011.2 |
| 20260506202316 | 21 | 248 | 1.6 | 3.2 | 0.00 | 0.20 | 0.20 | 76 | 1011.3 |